DELTA 1 DEB, 42086

Orbit data source: Space-Track

DELTA 1 DEB, 42086 is space debris in LEO originally from a launch on Sun, 15 Dec 1968 UTC launched from the Air Force Western Test Range (AFWTR). Debris objects in space refer to the collection of defunct objects orbiting the Earth. Examples of debris include non-operational satellites, rocket bodies, and fragments generated from explosions, collisions, or faulty payload assembly.

Loading next visibility...
Identifier
42086, 1968-114N
Orbit
LEO
Country
Flag of USUS
Related business
Manufacturer
Aerojet
Mission
Spacecraft
Bus & Motor
Unknown
Mass
Unknown
Launch date (UTC)
1968-12-15 (58 years ago)
Launch vehicle
Unknown
Launch site
Air Force Western Test Range (AFWTR)
Object type
Payload
Rocket body
Debris
Shape & HBR
Unknown shape, 0.1 m
Radar Cross Section
Medium (>0.1 m² and <1 m²)

Expand to show TLE details & history
Last TLE update: 1 week ago

TLE from 1 week ago
0 DELTA 1 DEB
1 42086U 68114N   26166.03316178  .00000982  00000-0  11550-1 0  9992
2 42086 102.1378  88.6881 0345447  93.8963 270.1633 11.93513078212834
Epoch: 2026-06-15T00:47Z
TLE epoch observation values (Epoch: 2026-06-15T00:47:45.177Z)
Latitude
-0.00001°
Longitude
173.4245°
Altitude
1,721.37 km
Speed
7.013 km/s
True Right ascension
05h 54m 45s
True Declination
0° 00' 00"
Sunlit
Object was in daylight at epoch
Visualization orbit readout
Latitude
Unknown
Longitude
Unknown
Altitude
Unknown
Speed
Unknown
Apparent Right ascension
Unknown
Apparent Declination
Unknown
Sunlit
N/A
Visualization observer readout
Local Sidereal Time
23:26:54
Azimuth
Unknown
Elevation
Unknown
Doppler factor
Unknown
Orbital elements
Apogee altitude
1,986.997 km
Perigee altitude
1,428.353 km
Semi-major axis
8,085.812 km
Eccentricity
0.03454
Inclination
102.1378°
RAAN
88.6881°
Arg. of periapsis
93.8963°
True anomaly
266.20744°
Mean anomaly
270.1633°
Eccentric anomaly
268.18503°
Mean motion
2.98509 °/min
Orbital period
120.6 mins
BSTAR
0.01155
Loading maneuver chart data...
Computing Atmospheric mass density...
Loading historical data...
Loading historical data...
Loading historical data...
Loading historical data...
Loading historical data...
Loading historical data...
Loading historical data...

Documentation

Showing up to 5 results
|